[Iaude] MPEC P17: 2024 OF2 [a=1.99,e=0.56,i=6.9,H=24.5]
    mpec at cfa.harvard.edu 
    mpec at cfa.harvard.edu
       
    Thu Aug  1 14:17:46 EDT 2024
    
    
  
M.P.E.C. 2024-P17                                Issued 2024 August 1, 18:16 UT
     The Minor Planet Electronic Circulars contain information on unusual
         minor planets, routine data on comets and natural satellites,
         and occasional editorial announcements.  They are published
    on behalf of Division F of the International Astronomical Union by the
          Minor Planet Center, Smithsonian Astrophysical Observatory,
                          Cambridge, MA 02138, U.S.A.
			  
             Prepared using the Tamkin Foundation Computer Network
                              MPC at CFA.HARVARD.EDU
            URL https://www.minorplanetcenter.net/    ISSN 1523-6714
                                    2024 OF2                                    
Observations:
     K24O02F* C2024 07 29.36256817 35 17.607+10 12 26.13         20.67wXEP017F51
     K24O02F  C2024 07 29.37420917 35 10.143+10 13 20.46         20.67wXEP017F51
     K24O02F  C2024 07 29.39750117 34 55.218+10 15 09.06         20.37wXEP017F51
     K24O02F  C2024 07 29.48380017 34 00.355+10 21 51.23         20.10GVEP017F51
     K24O02F  C2024 07 29.48444217 33 59.971+10 21 54.30         19.98GVEP017F51
     K24O02F KB2024 07 29.89877617 29 45.53 +10 55 34.8                VEP017204
     K24O02F KB2024 07 29.91552717 29 33.85 +10 57 00.1          19.6 GVEP017204
     K24O02F KC2024 07 29.96000117 29 04.135+11 00 40.14         19.9 GVEP017J95
     K24O02F KC2024 07 29.96764417 28 58.783+11 01 20.03         20.2 GVEP017J95
     K24O02F KC2024 07 29.97542817 28 53.316+11 01 59.34         20.3 GVEP017J95
     K24O02F KB2024 07 30.78831 17 19 03.01 +12 19 10.8                ZEP017M45
     K24O02F KB2024 07 30.79588 17 18 56.53 +12 19 57.1          20.1 VZEP017M45
     K24O02F IC2024 07 30.83754317 18 22.66 +12 24 15.7          20.0 GVEP017L01
     K24O02F KC2024 07 30.84014317 18 20.41 +12 24 32.1          20.2 GVEP017L01
     K24O02F KC2024 07 30.84224817 18 18.59 +12 24 45.5          20.1 GVEP017L01
     K24O02F KC2024 07 30.85395717 18 08.69 +12 25 45.2          19.8 GVEP017K62
     K24O02F KC2024 07 30.85619117 18 06.75 +12 25 58.6          20.1 GVEP017K62
     K24O02F KB2024 07 30.85677317 18 06.624+12 26 04.78         20.1 VZEP017K74
     K24O02F KB2024 07 30.87171317 17 53.779+12 27 37.37         20.3 VZEP017K74
     K24O02F KC2024 07 30.88164317 17 44.90 +12 28 36.2          19.8 GVEP017K62
     K24O02F KC2024 07 30.88601117 17 41.08 +12 29 04.1          20.3 GVEP017K62
     K24O02F KB2024 07 30.88688517 17 40.699+12 29 11.26         20.3 VZEP017K74
     K24O02F 6C2024 07 30.92860 17 17 05.44 +12 34 04.0          19.9 GVEP017Z84
     K24O02F 6C2024 07 30.93175 17 17 02.67 +12 34 23.4          21.2 GVEP017Z84
     K24O02F 6C2024 07 30.93492 17 16 59.87 +12 34 43.4          19.9 GVEP017Z84
     K24O02F KB2024 07 31.84164417 03 01.798+14 19 05.23         19.9 VZEP017C95
     K24O02F KB2024 07 31.85612817 02 45.854+14 20 55.10         20.1 VZEP017C95
     K24O02F KC2024 07 31.86356617 02 36.92 +14 21 50.5          19.9 GVEP017104
     K24O02F KC2024 07 31.87710117 02 22.01 +14 23 33.0          20.2 GVEP017104
     K24O02F KC2024 07 31.88193417 02 16.67 +14 24 08.6          20.0 GVEP017104
     K24O02F KB2024 07 31.94155017 01 12.14 +14 31 42.7          19.8 GXEP017I93
     K24O02F KB2024 07 31.94488417 01 08.43 +14 32 07.8          19.6 GXEP017I93
     K24O02F KB2024 07 31.94813317 01 04.82 +14 32 32.9          19.5 GXEP017I93
Observer details:
104 San Marcello Pistoiese.  Observers P. Bacci, M. Maestripieri.  Measurers
    P. Bacci, L. Tesi, G. Fagioli.  0.60-m F4 Reflector + CCD.
204 Schiaparelli Observatory.  Observer L. Buzzi.  0.84-m f/3.5 reflector +
    CMO.
C95 SATINO Remote Observatory, Haute Provence.  Observers D. Husar, B.
    Haeusler, C. Gerhard.  Measurer C. Gerhard.  0.30-m f/5.8 reflector + CMO.
F51 Pan-STARRS 1, Haleakala.  Observers J. Herman, T. Lowe, P. Minguez, A.
    Schultz, I. Smith.  Measurers K. Chambers, T. de Boer, J. Fairlamb, H.
    Gao, M. Huber, C.-C. Lin, E. Magnier, Y. Ramanjooloo, R. Wainscoat, R.
    Weryk.  1.8-m Ritchey-Chretien + CCD.
I93 St Pardon de Conques.  Observer F. Losse.  0.40-m f/3.7 reflector + CMO.
J95 Great Shefford.  Observer P. Birtwhistle.  0.41-m f/6.3 Schmidt-Cassegrain
    + CCD.
K62 Teplice Observatory.  Observer Z. Moravec.  0.60-m f/3.3 reflector + CMOS.
K74 Muensterschwarzach Observatory, Schwarzach.  Observer C. Gerhard.  0.30-m
    f/3.75 reflector + CMO.
L01 Visnjan Observatory, Tican.  Observers K. Korlevic, L. Poropat.  Measurer
    K. Korlevic.  1.0-m f/2.9 reflector + CCD.
M45 Starhopper Observatory, Sfantu Gheorghe.  Observer F. Ursache.  0.41-m
    f/7.5 reflector + CMO.
Z84 Calar Alto-Schmidt.  Observers M. Micheli, R. Kresken.  Measurers R.
    Kresken, M. Micheli, F. Ocana, L. Conversi.  0.8-m f/3 Schmidt + CCD.
Orbital elements:
2024 OF2                                                 Earth MOID = 0.0188 AU
Epoch 2024 Oct. 17.0 TT = JDT 2460600.5                 Alexandersen            
M  12.39519              (2000.0)            P               Q                  
n   0.35045281     Peri.  222.69915     +0.99555662     -0.05401641             
a   1.9924297      Node   140.20060     +0.07543580     +0.94775866             
e   0.5620009      Incl.    6.92087     -0.05635998     +0.31438154             
P   2.81           H   24.50          G   0.15           U   8                  
Residuals in seconds of arc
240729 F51  0.1+  0.1-    240730 M45 (2.1-  0.6-)   240730 Z84  0.2-  0.1+
240729 F51  0.0   0.0     240730 L01  0.0   0.4-    240730 Z84  0.1-  0.1-
240729 F51  0.2-  0.1+    240730 L01  0.2-  0.1-    240730 Z84  0.2-  0.1+
240729 F51  0.4-  0.0     240730 L01  0.3-  0.3+    240731 C95  0.0   0.1-
240729 F51  0.1-  0.1+    240730 K62  0.6+  0.1-    240731 C95  0.6-  0.2+
240729 204  0.1-  0.2+    240730 K62  0.3+  0.5-    240731 104  0.0   0.3+
240729 204 (0.4+  0.6-)   240730 K74  0.5-  0.0     240731 104  0.0   0.5+
240729 J95  0.5+  0.4-    240730 K74  0.3-  0.1-    240731 104  0.1-  0.4-
240729 J95  0.5+  0.1-    240730 K62  0.7+  0.5-    240731 I93  0.1-  0.1+
240729 J95 (0.2+  1.2-)   240730 K62  0.1-  0.3+    240731 I93  0.0   0.2-
240730 M45  1.5-  0.4-    240730 K74  0.2-  0.3-    240731 I93  0.2+  0.1+
Ephemeris:
2024 OF2                 a,e,i = 1.99, 0.56, 7                   q = 0.8727
Date    TT    R. A. (2000) Decl.     Delta      r    Elong.  Phase     V
2024 07 02    18 49 08.3 -01 26 43   0.2656  1.2674   158.4    17.2    23.0
...
2024 07 17    18 29 36.6 +02 23 56   0.1481  1.1469   149.9    26.4    21.8
...
2024 07 25    18 04 54.4 +06 07 10   0.09179 1.0860   138.3    38.4    21.0
...
2024 07 31    17 16 09.8 +12 42 43   0.05274 1.0430   120.7    56.9    20.3
2024 08 01    17 00 15.3 +14 40 49   0.04681 1.0361   115.6    62.1    20.1
2024 08 02    16 39 32.9 +17 05 14   0.04121 1.0293   109.4    68.5    20.0
...
2024 08 08    11 26 17.9 +28 25 08   0.02832 0.9904    33.2   145.9    24.5
...
2024 08 16    08 17 10.4 +12 16 44   0.07250 0.9452    20.8   157.6    28.9
...
2024 08 31    07 40 56.8 +06 37 46   0.1818  0.8873    43.8   128.0    26.1
M. P. C. Staff               (C) Copyright 2024 MPC           M.P.E.C. 2024-P17
    
    
More information about the Iaude
mailing list